ENT3CU EPKT-LICA

Flight info

Callsign ENT3CU
Flight time N/A
Altitude 40000
Route TUSIN DCT UPLAV DCT LEDVA DCT TISKO/N0451F390 DCT PETOV/N0452F400 DCT VELUG/N0445F390 DCT KUTID DCT EVINO DCT ARBUM
Aircraft B738/M-SDE2FGHIJ1RWXY/EB1

Departure

Time 2026-04-30 13:45
Airport Katowice Wojciech Korfanty International Airport (EPKT)

Arrival

Time N/A
Airport Lamezia Terme Sant'Eufemia International Airport (LICA)
Time Latitude Longitude Altitude Speed Heading
2026-04-30 13:18 50.47148 19.08247 999 ft 0 kts 180°
2026-04-30 13:36 50.47153 19.08247 997 ft 3 kts 180°
2026-04-30 13:37 50.47176 19.08247 997 ft 3 kts 180°
2026-04-30 13:37 50.47217 19.08246 997 ft 3 kts 156°
2026-04-30 13:38 50.47233 19.08195 997 ft 3 kts 90°
2026-04-30 13:38 50.47233 19.08173 997 ft 0 kts 90°
2026-04-30 13:40 50.47233 19.08176 1003 ft 2 kts 90°
2026-04-30 13:41 50.47233 19.08266 1001 ft 14 kts 90°
2026-04-30 13:41 50.47233 19.08473 999 ft 21 kts 90°
2026-04-30 13:41 50.47231 19.08698 1003 ft 20 kts 89°
2026-04-30 13:41 50.47232 19.08916 1003 ft 20 kts 90°
2026-04-30 13:42 50.47231 19.09127 1003 ft 19 kts 89°
2026-04-30 13:42 50.47230 19.09332 1000 ft 18 kts 90°
2026-04-30 13:42 50.47230 19.09720 1000 ft 17 kts 90°
2026-04-30 13:43 50.47229 19.09904 1000 ft 17 kts 90°
2026-04-30 13:43 50.47258 19.10069 999 ft 16 kts 51°
2026-04-30 13:43 50.47326 19.10202 997 ft 15 kts 53°
2026-04-30 13:43 50.47391 19.10333 1003 ft 16 kts 52°
2026-04-30 13:44 50.47483 19.10446 998 ft 18 kts
2026-04-30 13:44 50.47589 19.10387 999 ft 17 kts 289°
2026-04-30 13:44 50.47595 19.10111 1001 ft 57 kts 270°
2026-04-30 13:44 50.47599 19.08998 1000 ft 143 kts 271°
2026-04-30 13:45 50.47629 19.04991 2277 ft 202 kts 279°
2026-04-30 13:45 50.47826 19.02843 3305 ft 192 kts 288°
2026-04-30 13:45 50.48038 19.00779 4266 ft 202 kts 271°
2026-04-30 13:46 50.47887 18.98448 4536 ft 228 kts 268°
2026-04-30 13:46 50.47731 18.95895 5061 ft 242 kts 260°
2026-04-30 13:46 50.46856 18.93519 5455 ft 269 kts 221°
2026-04-30 13:46 50.45152 18.92172 6203 ft 281 kts 200°
2026-04-30 13:47 50.43286 18.91154 7122 ft 287 kts 199°
2026-04-30 13:47 50.41380 18.90121 7994 ft 292 kts 199°
2026-04-30 13:47 50.39442 18.89053 8878 ft 298 kts 199°
2026-04-30 13:47 50.37472 18.87949 9762 ft 304 kts 199°
2026-04-30 13:48 50.35466 18.86806 10627 ft 309 kts 199°
2026-04-30 13:48 50.33382 18.85607 11018 ft 332 kts 199°
2026-04-30 13:48 50.31130 18.84302 11340 ft 355 kts 199°
2026-04-30 13:48 50.28788 18.82937 12021 ft 363 kts 199°
2026-04-30 13:49 50.26407 18.81545 12848 ft 367 kts 200°
2026-04-30 13:49 50.24011 18.80141 13754 ft 370 kts 200°
2026-04-30 13:49 50.21581 18.78718 14475 ft 377 kts 200°
2026-04-30 13:49 50.19137 18.77288 15157 ft 382 kts 199°
2026-04-30 13:50 50.16599 18.75805 15880 ft 387 kts 199°
2026-04-30 13:50 50.11489 18.72823 17302 ft 397 kts 199°
2026-04-30 13:50 50.08883 18.71305 17999 ft 402 kts 199°
2026-04-30 13:51 50.06244 18.69770 18675 ft 408 kts 199°
2026-04-30 13:51 50.03609 18.68239 19285 ft 412 kts 199°
2026-04-30 13:51 50.00915 18.66675 19929 ft 415 kts 199°
2026-04-30 13:51 49.98162 18.65079 20581 ft 418 kts 199°
2026-04-30 13:52 49.95458 18.63512 21184 ft 422 kts 199°
2026-04-30 13:52 49.92689 18.61911 21763 ft 426 kts 199°
2026-04-30 13:52 49.89901 18.60301 22360 ft 430 kts 199°
2026-04-30 13:52 49.87122 18.58520 22927 ft 435 kts 207°
2026-04-30 13:53 49.84566 18.55964 23497 ft 440 kts 219°
2026-04-30 13:53 49.82327 18.52720 24042 ft 442 kts 231°
2026-04-30 13:53 49.80424 18.48986 24516 ft 444 kts 235°
2026-04-30 13:53 49.79164 18.46393 24822 ft 446 kts 235°
2026-04-30 13:54 49.76695 18.41262 25405 ft 452 kts 235°
2026-04-30 13:54 49.74803 18.37352 25836 ft 456 kts 235°
2026-04-30 13:54 49.72886 18.33426 26228 ft 460 kts 234°
2026-04-30 13:54 49.70937 18.29468 26506 ft 467 kts 234°
2026-04-30 13:55 49.68949 18.25456 26858 ft 473 kts 234°
2026-04-30 13:55 49.66938 18.21417 27251 ft 476 kts 234°
2026-04-30 13:55 49.64911 18.17355 27667 ft 479 kts 234°
2026-04-30 13:55 49.62868 18.13268 28071 ft 483 kts 234°
2026-04-30 13:56 49.60807 18.09153 28460 ft 486 kts 234°
2026-04-30 13:56 49.58736 18.05020 28837 ft 490 kts 234°
2026-04-30 13:56 49.56644 18.00850 29202 ft 493 kts 234°
2026-04-30 13:56 49.54536 17.96658 29562 ft 497 kts 234°
2026-04-30 13:57 49.53132 17.93866 29810 ft 499 kts 234°
2026-04-30 13:57 49.51002 17.89640 30133 ft 502 kts 234°
2026-04-30 13:57 49.48851 17.85377 30456 ft 506 kts 234°
2026-04-30 13:57 49.46694 17.81109 30850 ft 505 kts 234°
2026-04-30 13:58 49.44534 17.76844 31238 ft 505 kts 234°
2026-04-30 13:58 49.40211 17.68324 31877 ft 507 kts 234°
2026-04-30 13:58 49.38036 17.64047 32133 ft 510 kts 234°
2026-04-30 13:59 49.35848 17.59750 32402 ft 511 kts 233°
2026-04-30 13:59 49.33657 17.55461 32765 ft 510 kts 233°
2026-04-30 13:59 49.31307 17.51389 33204 ft 509 kts 224°
2026-04-30 13:59 49.28634 17.47877 33796 ft 503 kts 219°
2026-04-30 14:00 49.25925 17.44539 34362 ft 499 kts 219°
2026-04-30 14:00 49.20492 17.37881 34809 ft 502 kts 219°
2026-04-30 14:00 49.17779 17.34522 35052 ft 502 kts 220°
2026-04-30 14:01 49.15076 17.31155 35393 ft 500 kts 220°
2026-04-30 14:01 49.12389 17.27796 35747 ft 498 kts 220°
2026-04-30 14:01 49.09717 17.24454 36063 ft 496 kts 220°
2026-04-30 14:01 49.07050 17.21121 36344 ft 495 kts 220°
2026-04-30 14:02 49.04385 17.17794 36612 ft 495 kts 220°
2026-04-30 14:02 49.01721 17.14476 36875 ft 494 kts 220°
2026-04-30 14:02 48.99061 17.11169 37145 ft 494 kts 220°
2026-04-30 14:02 48.96403 17.07871 37407 ft 493 kts 221°
2026-04-30 14:03 48.93745 17.04577 37652 ft 493 kts 221°
2026-04-30 14:03 48.91088 17.01289 37906 ft 492 kts 221°
2026-04-30 14:03 48.88439 16.98015 38173 ft 491 kts 221°
2026-04-30 14:03 48.85787 16.94743 38398 ft 491 kts 221°
2026-04-30 14:04 48.83135 16.91474 38654 ft 490 kts 221°
2026-04-30 14:04 48.80492 16.88220 38903 ft 489 kts 221°
2026-04-30 14:04 48.77853 16.84976 39120 ft 488 kts 221°
2026-04-30 14:04 48.75184 16.81795 39276 ft 489 kts 216°
2026-04-30 14:05 48.72255 16.79155 39385 ft 491 kts 206°
2026-04-30 14:05 48.69099 16.77180 39376 ft 492 kts 196°
2026-04-30 14:05 48.62492 16.74551 39393 ft 491 kts 194°
2026-04-30 14:06 48.52583 16.70717 39392 ft 489 kts 194°
2026-04-30 14:07 48.42729 16.66782 39394 ft 488 kts 194°
2026-04-30 14:08 48.32948 16.62863 39401 ft 486 kts 194°
2026-04-30 14:08 48.23150 16.58958 39397 ft 485 kts 194°
2026-04-30 14:09 48.16633 16.56372 39407 ft 484 kts 194°
2026-04-30 14:10 48.06871 16.52510 39396 ft 483 kts 194°
2026-04-30 14:10 48.00373 16.49947 39402 ft 483 kts 194°
2026-04-30 14:11 47.93874 16.47390 39395 ft 483 kts 194°
2026-04-30 14:11 47.87378 16.44842 39388 ft 483 kts 195°
2026-04-30 14:12 47.80876 16.42297 39393 ft 483 kts 194°
2026-04-30 14:12 47.74372 16.39759 39395 ft 483 kts 194°
2026-04-30 14:13 47.67860 16.37223 39396 ft 484 kts 194°
2026-04-30 14:13 47.61343 16.34693 39389 ft 484 kts 194°
2026-04-30 14:14 47.54820 16.32166 39385 ft 485 kts 194°
2026-04-30 14:14 47.48290 16.29644 39379 ft 485 kts 194°
2026-04-30 14:15 47.41752 16.27125 39383 ft 485 kts 194°
2026-04-30 14:15 47.35225 16.24616 39379 ft 485 kts 194°
2026-04-30 14:16 47.28694 16.22112 39375 ft 485 kts 194°
2026-04-30 14:16 47.22169 16.19617 39372 ft 484 kts 195°
2026-04-30 14:17 47.15651 16.17130 39369 ft 484 kts 194°
2026-04-30 14:17 47.09135 16.14650 39369 ft 483 kts 194°
2026-04-30 14:18 47.02672 16.12197 39369 ft 482 kts 195°
2026-04-30 14:18 46.92926 16.08509 39364 ft 481 kts 194°
2026-04-30 14:19 46.83211 16.04844 39367 ft 480 kts 195°
2026-04-30 14:20 46.76744 16.02410 39359 ft 479 kts 195°
2026-04-30 14:20 46.67034 15.99056 39349 ft 478 kts 186°
2026-04-30 14:21 46.60394 15.98720 39361 ft 477 kts 181°
2026-04-30 14:22 46.50447 15.98449 39359 ft 476 kts 181°
2026-04-30 14:22 46.40511 15.98020 39352 ft 476 kts 182°
2026-04-30 14:23 46.27304 15.97125 39367 ft 474 kts 187°
2026-04-30 14:24 46.17479 15.95423 39349 ft 474 kts 188°
2026-04-30 14:25 46.04367 15.93171 39348 ft 475 kts 188°
2026-04-30 14:26 45.94486 15.91533 39355 ft 475 kts 188°
2026-04-30 14:27 45.84632 15.89906 39334 ft 475 kts 188°
2026-04-30 14:27 45.78066 15.88824 39347 ft 475 kts 188°
2026-04-30 14:28 45.68215 15.87204 39345 ft 475 kts 188°
2026-04-30 14:28 45.61643 15.86127 39337 ft 475 kts 188°
2026-04-30 14:29 45.49630 15.84166 39335 ft 474 kts 188°
2026-04-30 14:31 45.32178 15.81330 39338 ft 474 kts 188°
2026-04-30 14:31 45.22337 15.79739 39320 ft 475 kts 189°
2026-04-30 14:32 45.12496 15.78153 39325 ft 475 kts 188°
2026-04-30 14:33 45.05927 15.77098 39308 ft 475 kts 189°
2026-04-30 14:33 44.96076 15.75520 39311 ft 475 kts 189°
2026-04-30 14:34 44.89509 15.74471 39314 ft 475 kts 189°
2026-04-30 14:34 44.82983 15.73431 39303 ft 475 kts 189°
2026-04-30 14:35 44.73128 15.71865 39315 ft 475 kts 189°
2026-04-30 14:36 44.66549 15.70822 39287 ft 476 kts 189°
2026-04-30 14:36 44.59966 15.69781 39278 ft 476 kts 189°
2026-04-30 14:37 44.53382 15.68743 39287 ft 476 kts 189°
2026-04-30 14:37 44.46794 15.67706 39267 ft 476 kts 189°
2026-04-30 14:38 44.40216 15.66673 39268 ft 475 kts 189°
2026-04-30 14:38 44.33639 15.65643 39256 ft 475 kts 189°
2026-04-30 14:39 44.27085 15.64619 39228 ft 474 kts 189°
2026-04-30 14:39 44.20541 15.63598 39217 ft 472 kts 189°
2026-04-30 14:40 44.10772 15.62079 39204 ft 470 kts 189°
2026-04-30 14:40 44.04332 15.61080 39210 ft 468 kts 189°
2026-04-30 14:41 43.97873 15.60081 39208 ft 466 kts 189°
2026-04-30 14:41 43.91442 15.59088 39201 ft 464 kts 190°
2026-04-30 14:42 43.85027 15.58099 39202 ft 463 kts 190°
2026-04-30 14:42 43.78634 15.57116 39205 ft 462 kts 190°
2026-04-30 14:43 43.72260 15.56137 39206 ft 461 kts 190°
2026-04-30 14:43 43.66921 15.55319 39202 ft 460 kts 190°
2026-04-30 14:44 43.60559 15.54347 39197 ft 460 kts 190°
2026-04-30 14:44 43.54233 15.53381 39178 ft 461 kts 190°
2026-04-30 14:45 43.47855 15.52410 39188 ft 461 kts 191°
2026-04-30 14:45 43.41465 15.51439 39184 ft 463 kts 191°
2026-04-30 14:46 43.35057 15.50468 39168 ft 464 kts 191°
2026-04-30 14:46 43.28633 15.49496 39187 ft 465 kts 191°
2026-04-30 14:47 43.22195 15.48523 39181 ft 466 kts 191°
2026-04-30 14:47 43.15737 15.47550 39165 ft 467 kts 191°
2026-04-30 14:48 43.09274 15.46578 39178 ft 468 kts 191°
2026-04-30 14:48 43.02797 15.45605 39175 ft 469 kts 191°
2026-04-30 14:49 42.96310 15.44630 39159 ft 469 kts 191°
2026-04-30 14:49 42.89819 15.43663 39169 ft 469 kts 191°
2026-04-30 14:50 42.80015 15.42703 39165 ft 472 kts 188°
2026-04-30 14:51 42.70192 15.41873 39167 ft 471 kts 188°
2026-04-30 14:52 42.60384 15.40968 39176 ft 471 kts 189°
2026-04-30 14:52 42.50600 15.40051 39170 ft 469 kts 189°
2026-04-30 14:53 42.40829 15.39140 39170 ft 468 kts 189°
2026-04-30 14:54 42.27892 15.37940 39168 ft 467 kts 189°
2026-04-30 14:55 42.18176 15.37042 39150 ft 466 kts 189°
2026-04-30 14:56 42.05256 15.35852 39180 ft 465 kts 189°
2026-04-30 14:57 41.95579 15.34963 39159 ft 465 kts 190°
2026-04-30 14:58 41.82674 15.33783 39186 ft 465 kts 190°
2026-04-30 14:58 41.72973 15.32898 39174 ft 467 kts 189°
2026-04-30 15:00 41.56742 15.31425 39156 ft 468 kts 189°
2026-04-30 15:01 41.43739 15.30251 39183 ft 468 kts 189°
2026-04-30 15:01 41.34027 15.29376 39168 ft 468 kts 189°
2026-04-30 15:02 41.27527 15.28793 39170 ft 468 kts 189°
2026-04-30 15:03 41.17765 15.27917 38722 ft 474 kts 189°
2026-04-30 15:03 41.11210 15.27331 37568 ft 469 kts 190°
2026-04-30 15:04 41.04709 15.26755 36386 ft 467 kts 191°
2026-04-30 15:04 40.95082 15.25902 34987 ft 457 kts 192°
2026-04-30 15:05 40.85668 15.25065 33657 ft 447 kts 192°
2026-04-30 15:06 40.79509 15.24521 32778 ft 440 kts 192°
2026-04-30 15:06 40.73496 15.23990 31915 ft 432 kts 192°
2026-04-30 15:07 40.67517 15.23461 31140 ft 424 kts 192°
2026-04-30 15:07 40.61705 15.22946 30340 ft 418 kts 192°
2026-04-30 15:08 40.55934 15.22436 29443 ft 412 kts 192°
2026-04-30 15:08 40.47448 15.21687 28202 ft 402 kts 191°
2026-04-30 15:09 40.41907 15.21249 27352 ft 399 kts 187°
2026-04-30 15:09 40.36379 15.21930 26647 ft 398 kts 180°
2026-04-30 15:10 40.30919 15.22867 25849 ft 394 kts 179°
2026-04-30 15:11 40.20070 15.24620 24284 ft 390 kts 180°
2026-04-30 15:11 40.14706 15.25452 23433 ft 388 kts 180°
2026-04-30 15:12 40.06747 15.26680 22188 ft 378 kts 179°
2026-04-30 15:13 40.01561 15.27479 21398 ft 372 kts 179°
2026-04-30 15:14 39.91426 15.29033 19902 ft 362 kts 179°
2026-04-30 15:14 39.84024 15.30164 18795 ft 356 kts 178°
2026-04-30 15:16 39.71916 15.32320 16844 ft 352 kts 163°
2026-04-30 15:17 39.64216 15.39922 15737 ft 347 kts 140°
2026-04-30 15:18 39.55143 15.50144 13951 ft 343 kts 140°
2026-04-30 15:19 39.49754 15.56139 12803 ft 338 kts 140°